TAF and METAR

Decoding for American and Canadian METARs and TAFs is not fully implemented.

Could not understand the following METAR

KMYP 011734Z AUTO 26037G45KT 10SM CLR 00/M10 A3007 RMK AO2
No TAF available for Monarch Pass Weather Station
Monarch Pass Weather Station in United States of America at 3667m

Latest 5 airports